CW4340 Weather Reports


time (UTC)temp
C
wind
direction
speed
KPH
gust
KPH
rain 1hr
cm
rain 24hr
cm
rain mn
cm
humidity
%
barometer
mb
20260505153004 25 201 0.0 0.0 0.00 0.00 0.00 84 1010.5
20260505152504 25 150 0.0 0.0 0.00 0.00 0.00 84 1010.4
20260505152004 24 147 0.0 0.0 0.00 0.00 0.00 85 1010.4
20260505151504 24 193 0.0 0.0 0.00 0.00 0.00 85 1010.1
20260505150504 24 177 0.0 0.0 0.00 0.00 0.00 85 1010.3
20260505140504 24 198 0.0 0.0 0.00 0.00 0.00 85 1010.4
20260505124504 22 173 0.0 0.0 0.00 0.00 0.00 87 1010.1
20260505124005 22 166 0.0 0.0 0.00 0.00 0.00 87 1009.9
20260505123504 22 175 0.0 0.0 0.00 0.00 0.00 87 1009.9
20260505123005 22 184 0.0 0.0 0.00 0.00 0.00 87 1009.9
20260505122505 22 179 0.0 0.0 0.00 0.00 0.00 88 1009.8
20260505122004 22 162 0.0 0.0 0.00 0.00 0.00 88 1009.9
20260505121504 22 194 0.0 0.0 0.00 0.00 0.00 88 1009.8
20260505121004 22 156 0.0 0.0 0.00 0.00 0.00 88 1009.8
20260505120504 22 165 0.0 0.0 0.00 0.00 0.00 88 1009.8
20260505115004 22 182 0.0 0.0 0.00 0.00 0.00 88 1009.7
20260505114504 21 178 0.0 0.0 0.00 0.00 0.00 88 1009.6
20260505114004 21 167 0.0 0.0 0.00 0.00 0.00 88 1009.7
20260505113504 21 174 0.0 0.0 0.00 0.00 0.00 88 1009.8
20260505113004 21 188 0.0 0.0 0.00 0.00 0.00 88 1009.7
20260505112504 21 183 0.0 0.0 0.00 0.00 0.00 88 1009.5
20260505112004 21 179 0.0 0.0 0.00 0.00 0.00 88 1009.6
20260505111004 21 155 0.0 0.0 0.00 0.00 0.00 88 1009.5
20260505110504 21 184 0.0 0.0 0.00 0.00 0.00 88 1009.4
20260505102005 20 186 0.0 0.0 0.00 0.00 0.00 88 1009.5
20260505101504 20 173 0.0 0.0 0.00 0.00 0.00 88 1009.5
20260505101004 20 174 0.0 0.0 0.00 0.00 0.00 88 1009.7
20260505100502 20 174 0.0 0.0 0.00 0.00 0.00 88 1009.7
20260505100003 20 174 0.0 0.0 0.00 0.00 0.00 88 1009.7
20260505095503 20 172 0.0 0.0 0.00 0.00 0.00 88 1009.8
20260505094503 20 179 0.0 0.0 0.00 0.00 0.00 88 1009.8
20260505093503 20 177 0.0 0.0 0.00 0.00 0.00 88 1009.9
20260505093002 20 184 0.0 0.0 0.00 0.00 0.00 88 1010.0
20260505092502 20 185 0.0 0.0 0.00 0.00 0.00 88 1010.0
20260505092003 20 166 0.0 0.0 0.00 0.00 0.00 88 1010.0
20260505091503 20 165 0.0 0.0 0.00 0.00 0.00 88 1010.1
20260505091003 20 165 0.0 0.0 0.00 0.00 0.00 88 1010.0
20260505090503 20 173 0.0 0.0 0.00 0.00 0.00 89 1010.0
20260505085502 20 174 0.0 0.0 0.00 0.00 0.00 89 1010.1
20260505085002 20 175 0.0 0.0 0.00 0.00 0.00 89 1010.1
20260505084003 20 175 0.0 0.0 0.00 0.00 0.00 89 1010.0
20260505083003 20 175 0.0 0.0 0.00 0.00 0.00 88 1010.1
20260505082503 20 175 0.0 0.0 0.00 0.00 0.00 88 1010.0
20260505081503 20 174 0.0 0.0 0.00 0.00 0.00 88 1010.0
20260505080002 20 180 0.0 0.0 0.00 0.00 0.00 88 1010.2
20260505075502 20 184 0.0 0.0 0.00 0.00 0.00 88 1010.2
20260505075002 20 184 0.0 0.0 0.00 0.00 0.00 88 1010.2
20260505074003 20 205 0.0 0.0 0.00 0.00 0.00 88 1010.2
20260505073503 20 205 0.0 0.0 0.00 0.00 0.00 88 1010.1
20260505073003 20 176 0.0 0.0 0.00 0.00 0.00 88 1010.3
20260505072503 20 183 0.0 0.0 0.00 0.00 0.00 87 1010.4
20260505072003 20 183 0.0 0.0 0.00 0.00 0.00 87 1010.5
20260505071502 20 183 0.0 0.0 0.00 0.00 0.00 87 1010.5
20260505071002 20 183 0.0 0.0 0.00 0.00 0.00 87 1010.2
20260505070502 20 184 0.0 0.0 0.00 0.00 0.00 87 1010.3
20260505070003 20 194 0.0 0.0 0.00 0.00 0.00 87 1010.4
20260505065504 20 186 0.0 0.0 0.00 0.00 0.00 87 1010.5
20260505065003 20 175 0.0 0.0 0.00 0.00 0.00 87 1010.7
20260505064503 20 171 0.0 0.0 0.00 0.00 0.00 87 1010.8
20260505064003 20 172 0.0 0.0 0.00 0.00 0.00 87 1010.8
20260505063503 20 172 0.0 0.0 0.00 0.00 0.00 87 1010.8
20260505062502 20 167 0.0 0.0 0.00 0.00 0.00 87 1010.9
20260505062003 20 169 0.0 0.0 0.00 0.00 0.00 86 1010.9
20260505061502 20 176 0.0 0.0 0.00 0.00 0.00 86 1010.9
20260505061003 20 178 0.0 0.0 0.00 0.00 0.00 86 1011.0
20260505060503 20 178 0.0 0.0 0.00 0.00 0.00 86 1011.0
20260505060002 20 178 0.0 0.0 0.00 0.00 0.00 86 1011.1
20260505055503 20 152 0.0 0.0 0.00 0.00 0.00 86 1011.1
20260505055003 20 152 0.0 0.0 0.00 0.00 0.00 86 1011.1
20260505054502 20 152 0.0 0.0 0.00 0.00 0.00 86 1011.1
20260505054003 20 151 0.0 0.0 0.00 0.00 0.00 85 1011.2
20260505053502 20 150 0.0 0.0 0.00 0.00 0.00 85 1011.2
20260505053003 20 150 0.0 0.0 0.00 0.00 0.00 85 1011.2
20260505052004 20 149 0.0 0.0 0.00 0.00 0.00 85 1011.4
20260505051503 20 149 0.0 0.0 0.00 0.00 0.00 85 1011.4
20260505051003 20 149 0.0 0.0 0.00 0.00 0.00 85 1011.5
20260505050503 20 211 0.0 0.0 0.00 0.00 0.00 85 1011.3
20260505041502 20 175 0.0 0.0 0.00 0.00 0.00 84 1011.8
20260505041003 20 175 0.0 0.0 0.00 0.00 0.00 84 1011.7
20260505040502 20 171 0.0 0.0 0.00 0.00 0.00 84 1011.6
20260505040002 20 173 0.0 0.0 0.00 0.00 0.00 84 1011.5
20260505035502 20 176 0.0 0.0 0.00 0.00 0.00 83 1011.7
20260505035003 20 167 0.0 0.0 0.00 0.00 0.00 83 1012.0
20260505034003 20 174 0.0 0.0 0.00 0.00 0.00 83 1012.2
20260505033502 20 176 0.0 0.0 0.00 0.00 0.00 83 1012.2
20260505033003 20 177 0.0 0.0 0.00 0.00 0.00 83 1012.0
20260505032503 21 177 0.0 0.0 0.00 0.00 0.00 82 1011.9
20260505032004 21 175 0.0 0.0 0.00 0.00 0.00 82 1012.0
20260505031502 21 187 0.0 0.0 0.00 0.00 0.00 82 1012.0
20260505031003 21 182 0.0 0.0 0.00 0.00 0.00 82 1011.7
20260505030503 21 192 0.0 0.0 0.00 0.00 0.00 82 1011.8
20260505030002 21 178 0.0 0.0 0.00 0.00 0.00 82 1011.9
20260505025502 21 177 0.0 0.0 0.00 0.00 0.00 82 1011.9
20260505025004 21 179 0.0 0.0 0.00 0.00 0.00 82 1012.0
20260505024503 21 180 0.0 0.0 0.00 0.00 0.00 82 1011.7
20260505024003 21 182 0.0 0.0 0.00 0.00 0.00 81 1011.8
20260505023502 21 179 0.0 0.0 0.00 0.00 0.00 81 1011.8
20260505023002 21 179 0.0 0.0 0.00 0.00 0.00 81 1011.8
20260505022503 21 167 0.0 0.0 0.00 0.00 0.00 81 1011.7
20260505022003 21 158 0.0 0.0 0.00 0.00 0.00 81 1011.7
20260505021503 21 172 0.0 0.0 0.00 0.00 0.00 81 1011.7
20260505021003 21 217 0.0 0.0 0.00 0.00 0.00 80 1011.8
20260505020503 21 189 0.0 0.0 0.00 0.00 0.00 80 1011.7
20260505015503 22 185 0.0 0.0 0.00 0.00 0.00 80 1011.7
20260505015002 22 180 0.0 0.0 0.00 0.00 0.00 79 1011.5
20260505014504 22 189 0.0 0.0 0.00 0.00 0.00 79 1011.4
20260505014003 22 184 0.0 0.0 0.00 0.00 0.00 79 1011.5
20260505013502 22 181 0.0 0.0 0.00 0.00 0.00 79 1011.5
20260505013003 22 172 0.0 0.0 0.00 0.00 0.00 79 1011.6
20260505012503 22 170 0.0 0.0 0.00 0.00 0.00 78 1011.4
20260505010502 22 178 0.0 0.0 0.00 0.00 0.00 77 1011.5
20260505005503 23 183 0.0 0.0 0.00 0.00 0.00 76 1011.5
20260505005003 23 183 0.0 0.0 0.00 0.00 0.00 76 1011.6
20260505004503 23 182 0.0 0.0 0.00 0.00 0.00 76 1011.5
20260505004002 23 195 0.0 0.0 0.00 0.00 0.00 75 1011.5
20260505003003 23 181 0.0 8.0 0.00 0.00 0.00 75 1011.4
20260505001503 23 189 0.0 0.0 0.00 0.00 0.00 74 1011.4
20260505001003 23 182 0.0 0.0 0.00 0.00 0.00 74 1011.5
20260504235503 24 165 0.0 4.8 0.00 0.00 0.00 73 1011.6
20260504234503 24 153 0.0 0.0 0.00 0.00 0.00 72 1011.8
20260504234003 24 184 0.0 0.0 0.00 0.00 0.00 72 1012.0
20260504233503 24 174 0.0 3.2 0.00 0.00 0.00 72 1012.0
20260504233002 24 171 0.0 8.0 0.00 0.00 0.00 72 1012.1
20260504232503 24 184 0.0 0.0 0.00 0.00 0.00 72 1012.1
20260504231002 25 176 0.0 0.0 0.00 0.00 0.00 71 1012.1
20260504230502 25 164 0.0 3.2 0.00 0.00 0.00 70 1012.1
20260504230003 25 133 0.0 0.0 0.00 0.00 0.00 70 1012.1
20260504225503 25 167 0.0 0.0 0.00 0.00 0.00 71 1012.0
20260504225003 25 177 0.0 0.0 0.00 0.00 0.00 70 1012.1
20260504224503 25 191 0.0 0.0 0.00 0.00 0.00 69 1012.1
20260504224003 25 167 0.0 0.0 0.00 0.00 0.00 69 1012.2
20260504223503 25 167 0.0 0.0 0.00 0.00 0.00 69 1012.1
20260504223003 26 184 0.0 0.0 0.00 0.00 0.00 68 1012.2
20260504222503 26 169 0.0 0.0 0.00 0.00 0.00 69 1012.2
20260504221502 26 188 0.0 0.0 0.00 0.00 0.00 69 1012.3
20260504221004 26 177 0.0 0.0 0.00 0.00 0.00 69 1012.3
20260504220503 26 176 0.0 0.0 0.00 0.00 0.00 69 1012.4
20260504220003 26 162 0.0 0.0 0.00 0.00 0.00 68 1012.4
20260504215502 26 155 0.0 0.0 0.00 0.00 0.00 68 1012.4
20260504214003 25 175 0.0 0.0 0.00 0.00 0.00 68 1012.7
20260504213503 26 181 0.0 0.0 0.00 0.00 0.00 67 1012.7
20260504213003 26 169 0.0 0.0 0.00 0.00 0.00 67 1012.8
20260504212003 26 176 0.0 0.0 0.00 0.00 0.00 67 1012.8
20260504211503 26 162 0.0 0.0 0.00 0.00 0.00 67 1012.9
20260504210503 26 192 0.0 0.0 0.00 0.00 0.00 66 1012.9
20260504210003 26 176 0.0 0.0 0.00 0.00 0.00 65 1012.9
20260504205502 26 181 0.0 0.0 0.00 0.00 0.00 66 1013.2
20260504205003 26 167 0.0 0.0 0.00 0.00 0.00 66 1013.0
20260504204503 26 184 0.0 0.0 0.00 0.00 0.00 66 1013.2
20260504203503 26 166 0.0 0.0 0.00 0.00 0.00 65 1013.3
20260504203003 26 197 0.0 0.0 0.00 0.00 0.00 65 1013.3
20260504202003 26 181 0.0 0.0 0.00 0.00 0.00 67 1013.5
20260504201003 26 194 0.0 0.0 0.00 0.00 0.00 65 1013.8
20260504200503 26 164 0.0 0.0 0.00 0.00 0.00 64 1013.9
20260504200003 26 167 0.0 0.0 0.00 0.00 0.00 64 1014.1
20260504195503 26 173 0.0 0.0 0.00 0.00 0.00 65 1014.2
20260504195003 26 160 0.0 0.0 0.00 0.00 0.00 65 1014.2
20260504194503 26 168 0.0 0.0 0.00 0.00 0.00 66 1014.3
20260504194003 26 183 0.0 0.0 0.00 0.00 0.00 66 1014.4
20260504193003 26 180 0.0 0.0 0.00 0.00 0.00 66 1014.5
20260504192503 26 159 0.0 0.0 0.00 0.00 0.00 65 1014.7
20260504192003 26 170 0.0 0.0 0.00 0.00 0.00 63 1014.6
20260504191003 27 182 0.0 0.0 0.00 0.00 0.00 63 1014.7
20260504190503 27 198 0.0 0.0 0.00 0.00 0.00 62 1014.7
20260504190003 26 193 0.0 0.0 0.00 0.00 0.00 64 1014.8
20260504185003 26 185 0.0 0.0 0.00 0.00 0.00 65 1014.9
20260504184503 26 167 0.0 0.0 0.00 0.00 0.00 63 1014.9
20260504184003 26 187 0.0 0.0 0.00 0.00 0.00 63 1015.1
20260504183503 26 180 0.0 0.0 0.00 0.00 0.00 65 1015.1
20260504183003 26 181 0.0 0.0 0.00 0.00 0.00 66 1015.3
20260504182503 26 162 0.0 0.0 0.00 0.00 0.00 64 1015.2
20260504182003 26 192 0.0 0.0 0.00 0.00 0.00 65 1015.3
20260504181503 26 189 0.0 0.0 0.00 0.00 0.00 65 1015.2
20260504181003 26 156 0.0 0.0 0.00 0.00 0.00 65 1015.4
20260504180003 26 170 0.0 0.0 0.00 0.00 0.00 65 1015.6
20260504175503 26 169 0.0 0.0 0.00 0.00 0.00 65 1015.5
20260504174503 25 170 0.0 0.0 0.00 0.00 0.00 66 1015.6
20260504174003 26 169 0.0 0.0 0.00 0.00 0.00 64 1015.8
20260504173503 25 167 0.0 0.0 0.00 0.00 0.00 65 1015.9
20260504173003 25 163 0.0 0.0 0.00 0.00 0.00 65 1015.8
20260504172503 25 182 0.0 0.0 0.00 0.00 0.00 65 1016.0
20260504172002 25 184 0.0 0.0 0.00 0.00 0.00 67 1015.9
20260504171504 25 169 0.0 0.0 0.00 0.00 0.00 66 1015.9
20260504171003 25 194 0.0 0.0 0.00 0.00 0.00 66 1016.1